sat.trackr.live / text

‹ back to catalog

AGGIESAT6 (AGS6)

NORAD 68634 · 2026-074H

PAYLOAD ACTIVE UNKNOWN

§ Identity

Operator
Country
US
Launch date
2026-04-07
Launch site
AFWTR
Launch vehicle
Mass (kg)
RCS (m²)

External: N2YO · Heavens-Above · Gunter

§ Orbital elements

Epoch: 2026-05-25T00:52:50.329632Z

Period
94.37 min
Inclination
60.0204°
Eccentricity
0.0026003
Mean motion
15.25974840 rev/d
Perigee alt
470.0 km
Apogee alt
505.7 km
Semi-major
6,866.0 km
B*
3.0006e-4
RAAN
266.5784°
Arg perigee
17.7602°
Mean anomaly
342.4382°
Rev number
726

§ Raw data

AGGIESAT6 (AGS6)1 68634U 26074H   26145.03669363  .00007559  00000+0  30006-3 0  99972 68634  60.0204 266.5784 0026003  17.7602 342.4382 15.25974840  7269

JSON: /api/v1/satellites/68634 · /tle

For live sub-satellite position, see the globe view (requires WebGL).

§ Visibility from observer

Set your observer location to see the next 7 days of passes ≥ 10°. The values pass through the URL so the page stays shareable.

No JS? Fill the form by hand. The geolocation button needs JavaScript.